User: anonymous   Login
Location: Bannatyne
(13.0833°N, 59.5333°W)
Time: 12:31:58
(UTC+00:00)
Language:

Explorer 7 - Orbit

View from above orbital plane
View from above orbital plane
View from above satellite
View from above satellite

Ground track
Ground track

The orbit data is extracted from the following two-line orbital elements,

1    22U 59009A   20024.52937416 -.00000084 +00000-0 +17333-4 0  9996
2    22 050.2843 061.9993 0139662 065.0609 296.4777 14.95025562448690
Epoch (UTC): 24 January 2020 12:42:17
Eccentricity: 0.0139662
inclination: 50.2843°
perigee height: 485 km
apogee height: 679 km
right ascension of ascending node: 61.9993°
argument of perigee: 65.0609°
revolutions per day: 14.95025562
mean anomaly at epoch: 296.4777°
orbit number at epoch: 44869

The dashed part of the orbit path shows where the satellite is in the earth's shadow,  

DLR